| time (UTC) | temp F | wind direction | speed MPH | gust MPH | rain 1hr in | rain 24hr in | rain mn in | humidity % | barometer mb |
| 20260507114515 | 54 | 9 | 0.0 | 0.0 | 0.00 | 0.00 | 0.00 | 88 | 1015.8 |
| 20260507113006 | 54 | 9 | 0.0 | 0.0 | 0.00 | 0.00 | 0.00 | 88 | 1015.7 |
| 20260507111545 | 54 | 9 | 0.0 | 0.0 | 0.00 | 0.00 | 0.00 | 88 | 1015.9 |
| 20260507110059 | 54 | 9 | 0.0 | 0.0 | 0.00 | 0.00 | 0.00 | 88 | 1015.9 |
| 20260507104526 | 54 | 9 | 0.0 | 0.0 | 0.00 | 0.00 | 0.00 | 87 | 1016.0 |
| 20260507103028 | 55 | 9 | 0.0 | 0.0 | 0.00 | 0.00 | 0.00 | 87 | 1016.2 |
| 20260507101515 | 55 | 9 | 0.0 | 0.0 | 0.00 | 0.00 | 0.00 | 87 | 1016.2 |
| 20260507100004 | 55 | 9 | 0.0 | 0.0 | 0.00 | 0.00 | 0.00 | 87 | 1016.2 |
| 20260507094540 | 55 | 9 | 0.0 | 0.0 | 0.00 | 0.00 | 0.00 | 87 | 1016.3 |
| 20260507093038 | 55 | 9 | 0.0 | 0.0 | 0.00 | 0.00 | 0.00 | 88 | 1016.4 |
| 20260507091519 | 55 | 9 | 0.0 | 0.0 | 0.00 | 0.00 | 0.00 | 87 | 1016.6 |
| 20260507090026 | 55 | 9 | 0.0 | 0.0 | 0.00 | 0.00 | 0.00 | 87 | 1016.6 |
| 20260507084559 | 55 | 9 | 0.0 | 0.0 | 0.00 | 0.00 | 0.00 | 87 | 1016.9 |
| 20260507083057 | 55 | 9 | 0.0 | 0.0 | 0.00 | 0.00 | 0.00 | 87 | 1017.0 |
| 20260507081538 | 56 | 5 | 0.0 | 0.0 | 0.00 | 0.00 | 0.00 | 87 | 1017.1 |
| 20260507080042 | 56 | 5 | 0.0 | 0.0 | 0.00 | 0.00 | 0.00 | 87 | 1017.2 |
| 20260507074527 | 56 | 9 | 0.0 | 0.0 | 0.00 | 0.00 | 0.00 | 87 | 1017.2 |
| 20260507073017 | 56 | 9 | 0.0 | 0.0 | 0.00 | 0.00 | 0.00 | 87 | 1017.1 |
| 20260507071600 | 56 | 5 | 0.0 | 0.0 | 0.00 | 0.00 | 0.00 | 87 | 1017.3 |
| 20260507070103 | 57 | 5 | 0.0 | 0.0 | 0.00 | 0.00 | 0.00 | 87 | 1017.3 |
| 20260507064539 | 57 | 5 | 0.0 | 0.0 | 0.00 | 0.00 | 0.00 | 86 | 1017.5 |
| 20260507063037 | 58 | 5 | 0.0 | 0.0 | 0.00 | 0.00 | 0.00 | 87 | 1017.5 |
| 20260507061519 | 58 | 9 | 0.0 | 0.0 | 0.00 | 0.00 | 0.00 | 86 | 1017.6 |
| 20260507060020 | 58 | 5 | 0.0 | 0.0 | 0.00 | 0.00 | 0.00 | 86 | 1017.5 |
| 20260507054506 | 58 | 5 | 0.0 | 0.0 | 0.00 | 0.00 | 0.00 | 86 | 1017.5 |
| 20260507053007 | 59 | 5 | 0.0 | 0.0 | 0.00 | 0.00 | 0.00 | 85 | 1017.4 |
| 20260507051505 | 59 | 5 | 0.0 | 0.0 | 0.00 | 0.00 | 0.00 | 85 | 1017.5 |
| 20260507050006 | 59 | 5 | 0.0 | 0.0 | 0.00 | 0.00 | 0.00 | 85 | 1017.4 |
| 20260507044505 | 60 | 5 | 0.0 | 2.0 | 0.00 | 0.00 | 0.00 | 84 | 1017.4 |
| 20260507043004 | 60 | 5 | 0.0 | 3.0 | 0.00 | 0.00 | 0.00 | 84 | 1017.3 |
| 20260507041506 | 60 | 5 | 0.0 | 5.0 | 0.00 | 0.00 | 0.00 | 83 | 1017.2 |
| 20260507040005 | 60 | 5 | 1.0 | 6.0 | 0.00 | 0.00 | 0.00 | 83 | 1017.2 |
| 20260507034555 | 60 | 5 | 0.0 | 5.0 | 0.00 | 0.00 | 0.00 | 82 | 1017.0 |
| 20260507033047 | 61 | 5 | 0.0 | 5.0 | 0.00 | 0.00 | 0.00 | 82 | 1016.9 |
| 20260507031521 | 61 | 5 | 2.0 | 8.0 | 0.00 | 0.00 | 0.00 | 82 | 1016.8 |
| 20260507030021 | 61 | 5 | 1.0 | 6.0 | 0.00 | 0.00 | 0.00 | 81 | 1016.7 |
| 20260507024503 | 62 | 5 | 1.0 | 10.0 | 0.00 | 0.00 | 0.00 | 80 | 1016.5 |
| 20260507023002 | 62 | 5 | 2.0 | 8.0 | 0.00 | 0.00 | 0.00 | 79 | 1016.4 |
| 20260507021549 | 63 | 5 | 4.0 | 9.0 | 0.00 | 0.00 | 0.00 | 78 | 1016.5 |
| 20260507020052 | 64 | 5 | 2.0 | 9.0 | 0.00 | 0.00 | 0.00 | 76 | 1016.4 |
| 20260507014537 | 65 | 5 | 3.0 | 10.0 | 0.00 | 0.00 | 0.00 | 74 | 1016.2 |
| 20260507013026 | 66 | 5 | 2.0 | 9.0 | 0.00 | 0.00 | 0.00 | 75 | 1016.3 |
| 20260507011516 | 66 | 5 | 3.0 | 8.0 | 0.00 | 0.00 | 0.00 | 74 | 1016.2 |
| 20260507010015 | 67 | 5 | 3.0 | 13.0 | 0.00 | 0.00 | 0.00 | 73 | 1016.1 |
| 20260507004549 | 68 | 5 | 1.0 | 10.0 | 0.00 | 0.00 | 0.00 | 71 | 1016.1 |
| 20260507003049 | 68 | 5 | 3.0 | 13.0 | 0.00 | 0.00 | 0.00 | 70 | 1016.1 |
| 20260507001538 | 69 | 5 | 3.0 | 10.0 | 0.00 | 0.00 | 0.00 | 69 | 1015.9 |
| 20260507000031 | 69 | 5 | 3.0 | 10.0 | 0.00 | 0.00 | 0.00 | 70 | 1015.9 |
| 20260506234512 | 69 | 5 | 2.0 | 10.0 | 0.00 | 0.00 | 0.00 | 69 | 1015.8 |
| 20260506233010 | 69 | 5 | 5.0 | 13.0 | 0.00 | 0.00 | 0.00 | 69 | 1015.9 |
| 20260506231553 | 69 | 5 | 4.0 | 10.0 | 0.00 | 0.00 | 0.00 | 68 | 1016.0 |
| 20260506230054 | 69 | 5 | 3.0 | 15.0 | 0.00 | 0.00 | 0.00 | 69 | 1016.0 |
| 20260506224532 | 69 | 5 | 5.0 | 15.0 | 0.00 | 0.00 | 0.00 | 67 | 1016.1 |
| 20260506223030 | 70 | 5 | 5.0 | 12.0 | 0.00 | 0.00 | 0.00 | 66 | 1016.3 |
| 20260506221513 | 69 | 5 | 4.0 | 12.0 | 0.00 | 0.00 | 0.00 | 67 | 1016.4 |
| 20260506220010 | 70 | 360 | 4.0 | 11.0 | 0.00 | 0.00 | 0.00 | 65 | 1016.4 |
| 20260506214551 | 70 | 5 | 4.0 | 13.0 | 0.00 | 0.00 | 0.00 | 63 | 1016.6 |
| 20260506213049 | 70 | 5 | 2.0 | 14.0 | 0.00 | 0.00 | 0.00 | 65 | 1016.7 |
| 20260506211534 | 70 | 5 | 5.0 | 13.0 | 0.00 | 0.00 | 0.00 | 64 | 1016.8 |
| 20260506210030 | 69 | 5 | 3.0 | 12.0 | 0.00 | 0.00 | 0.00 | 64 | 1016.9 |
| 20260506204514 | 70 | 5 | 3.0 | 9.0 | 0.00 | 0.00 | 0.00 | 64 | 1017.0 |
| 20260506203013 | 69 | 5 | 4.0 | 13.0 | 0.00 | 0.00 | 0.00 | 65 | 1017.0 |
| 20260506201554 | 68 | 5 | 3.0 | 12.0 | 0.00 | 0.00 | 0.00 | 65 | 1017.0 |
| 20260506200056 | 69 | 5 | 7.0 | 13.0 | 0.00 | 0.00 | 0.00 | 64 | 1017.1 |
| 20260506194536 | 69 | 5 | 2.0 | 13.0 | 0.00 | 0.00 | 0.00 | 65 | 1017.3 |
| 20260506193034 | 69 | 5 | 5.0 | 13.0 | 0.00 | 0.00 | 0.00 | 64 | 1017.5 |
| 20260506191514 | 69 | 5 | 3.0 | 11.0 | 0.00 | 0.00 | 0.00 | 64 | 1017.5 |
| 20260506190013 | 68 | 5 | 3.0 | 12.0 | 0.00 | 0.00 | 0.00 | 65 | 1017.7 |
| 20260506184521 | 67 | 5 | 4.0 | 10.0 | 0.00 | 0.00 | 0.00 | 66 | 1017.8 |
| 20260506183014 | 69 | 5 | 2.0 | 12.0 | 0.00 | 0.00 | 0.00 | 63 | 1017.8 |
| 20260506181510 | 69 | 5 | 2.0 | 9.0 | 0.00 | 0.00 | 0.00 | 64 | 1018.0 |
| 20260506180009 | 67 | 5 | 3.0 | 11.0 | 0.00 | 0.00 | 0.00 | 65 | 1018.1 |
| 20260506174509 | 68 | 5 | 1.0 | 10.0 | 0.00 | 0.00 | 0.00 | 66 | 1018.2 |
| 20260506173007 | 68 | 5 | 2.0 | 10.0 | 0.00 | 0.00 | 0.00 | 66 | 1018.2 |
| 20260506171550 | 67 | 5 | 5.0 | 12.0 | 0.00 | 0.00 | 0.00 | 66 | 1018.4 |
| 20260506170050 | 67 | 5 | 2.0 | 9.0 | 0.00 | 0.00 | 0.00 | 64 | 1018.3 |
| 20260506164528 | 66 | 5 | 1.0 | 5.0 | 0.00 | 0.00 | 0.00 | 65 | 1018.3 |
| 20260506163027 | 65 | 5 | 1.0 | 4.0 | 0.00 | 0.00 | 0.00 | 67 | 1018.4 |
| 20260506161506 | 64 | 5 | 1.0 | 3.0 | 0.00 | 0.00 | 0.00 | 69 | 1018.4 |
| 20260506160000 | 63 | 5 | 0.0 | 3.0 | 0.00 | 0.00 | 0.00 | 72 | 1018.4 |
| 20260506154601 | 62 | 5 | 0.0 | 2.0 | 0.00 | 0.00 | 0.00 | 73 | 1018.3 |
| 20260506153043 | 61 | 5 | 0.0 | 1.0 | 0.00 | 0.00 | 0.00 | 74 | 1018.4 |
| 20260506151534 | 59 | 5 | 0.0 | 3.0 | 0.00 | 0.00 | 0.00 | 78 | 1018.4 |
| 20260506150012 | 57 | 5 | 0.0 | 2.0 | 0.00 | 0.00 | 0.00 | 80 | 1018.4 |
| 20260506144524 | 56 | 5 | 0.0 | 1.0 | 0.00 | 0.04 | 0.00 | 81 | 1018.3 |
| 20260506143053 | 55 | 5 | 0.0 | 2.0 | 0.00 | 0.04 | 0.00 | 83 | 1018.3 |
| 20260506141546 | 54 | 5 | 0.0 | 0.0 | 0.00 | 0.04 | 0.00 | 84 | 1018.3 |
| 20260506140040 | 53 | 5 | 0.0 | 0.0 | 0.00 | 0.04 | 0.00 | 84 | 1018.3 |
| 20260506134532 | 53 | 5 | 0.0 | 0.0 | 0.00 | 0.08 | 0.00 | 85 | 1018.2 |
| 20260506133012 | 52 | 5 | 0.0 | 0.0 | 0.00 | 0.08 | 0.00 | 85 | 1018.0 |
| 20260506131511 | 52 | 5 | 0.0 | 0.0 | 0.00 | 0.08 | 0.00 | 85 | 1017.8 |
| 20260506130010 | 52 | 5 | 0.0 | 0.0 | 0.00 | 0.08 | 0.00 | 84 | 1017.7 |
| 20260506124509 | 53 | 5 | 0.0 | 0.0 | 0.00 | 0.08 | 0.00 | 84 | 1017.5 |
| 20260506123008 | 53 | 5 | 0.0 | 0.0 | 0.00 | 0.08 | 0.00 | 83 | 1017.5 |
| 20260506121508 | 54 | 5 | 0.0 | 0.0 | 0.00 | 0.08 | 0.00 | 83 | 1017.4 |
| 20260506120011 | 54 | 5 | 0.0 | 0.0 | 0.00 | 0.08 | 0.00 | 83 | 1017.4 |